[Date Prev][Date Next][Thread Prev][Thread Next] - [Date Index][Thread Index][Author Index]

MIr & ISS Keps 7-2-99



MIR
1 16609U 86017A   99183.21389255  .00029931  00000-0  21831-3 0  6291
2 16609  51.6615 266.9793 0002534 295.2088  64.8653 15.73009343763775
ISS
1 25544U 98067A   99182.81574957  .00024797  00000-0  31122-3 0  7376
2 25544  51.5933 124.3167 0011609  49.9211 310.2839 15.59495779 34885

----
Via the sarex mailing list at AMSAT.ORG courtesy of AMSAT-NA.
To unsubscribe, send "unsubscribe sarex" to Majordomo@amsat.org



AMSAT Top AMSAT Home